Location: Prairie State College
(41.5244°N, 87.6382°W)
Time: 18:26:23
(UTC-05:00)

MSX - Visible Passes

Search period start: 03 September 2015 00:00
Search period end: 13 September 2015 00:00
Orbit: 894 x 907 km, 98.7° (Epoch: 22 August)

Date Brightness Start Highest point End Pass type
(mag) Time Alt. Az. Time Alt. Az. Time Alt. Az.
03 Sep 4.8 20:20:18 10° S 20:25:51 50° W 20:31:27 10° NNW visible
04 Sep 4.9 20:23:09 10° S 20:28:40 48° W 20:34:12 10° NNW visible
05 Sep 5.0 20:26:00 10° S 20:31:28 45° W 20:36:58 10° NNW visible
06 Sep 5.1 20:28:51 10° S 20:34:17 42° W 20:39:43 10° NNW visible
07 Sep 5.2 20:31:43 10° SSW 20:37:05 40° W 20:42:28 10° NNW visible
08 Sep 5.3 20:34:35 10° SSW 20:39:54 38° W 20:45:13 10° NNW visible
09 Sep 5.4 20:37:28 10° SSW 20:42:43 36° W 20:47:57 10° NNW visible
10 Sep 5.5 20:40:21 10° SSW 20:45:32 34° W 20:50:41 10° NNW visible
11 Sep 5.6 20:43:15 10° SSW 20:48:21 32° W 20:53:26 10° NNW visible
12 Sep 5.6 20:46:09 10° SSW 20:51:10 30° W 20:56:08 10° NW visible
